Tracking 30986 objects as of 9-Jul-2025
HD Live streaming from Space Station
objects crossing your sky now

CZ-6A DEB

Track CZ-6A DEB now!
10-day predictions


NORAD ID: 54532
Int'l Code: 2022-151KL
Perigee: 649.1 km
Apogee: 830.4 km
Inclination: 98.6 °
Period: 99.5 minutes
Semi major axis: 7110 km
RCS: Unknown
Launch date: November 11, 2022
Source: People's Republic of China (PRC)
Launch site: Taiyaun Space Center, China (TSC)

Note: This is SATELLITE DEBRIS
Your satellite tracking list
Your tracking list is empty




NASA's NSSDC Master Catalog

Two Line Element Set (TLE):
1 54532U 22151KL  25190.13002246  .00000348  00000-0  98210-4 0  9994
2 54532  98.6469 235.0299 0127521 250.8663 107.8687 14.47877367139915
Source of the keplerian elements: AFSPC